Flag for Montserrat Weather past 2 weeks in Brades, Montserrat

Now
77 °F

Passing clouds.


Feels Like: 79 °F
Forecast: 77 / 80 °F
Wind: 7 mph from East

Location: Vc Bird International Antigua Airport

Current Time: Jan 28, 2015 at 8:16:34 PM

Latest Report: Jan 28, 2015 at 8:00 PM


Visibility: N/A

Pressure: 29.98 "Hg

Humidity: 79%

Dew point: 70 °F

Location of BradesLocation

Historic Weather in Brades — Graph

°F

Brades temperature yesterday

Maximum temperature yesterday: 82 °F (at 10:00 AM)
Minimum temperature yesterday: 75 °F (at 5:00 AM)
Average temperature yesterday: 79 °F

Past Weeks' High & Low Weather Summary

 TemperatureHumidityPressure
High82 °F (Jan 14, 11:00 AM)94% (Jan 18, 2:00 AM)30.07 "Hg (Jan 18, 2:00 AM)
Low70 °F (Jan 19, 4:00 AM)62% (Jan 16, 5:00 PM)29.92 "Hg (Jan 21, 3:00 PM)
Average78 °F77%30.00 "Hg
* Reported Jan 13 7:00 PM — Jan 28 7:00 PM, Brades, Weather by CustomWeather, © 2014

Note: Actual official high and low records may vary slightly from our data, if they occured in-between our weather recording intervals... More about our weather records

Advertising

Brades weather history for previous 24 hours

 ConditionsComfort  
Time TempWeatherWind HumidityBarometerVisibility
7:00 PM
Jan 28
77 °FPassing clouds.7 mph79%29.98 "HgN/A
6:00 PM77 °FPassing clouds.9 mph79%29.95 "HgN/A
5:00 PM79 °FScattered clouds.9 mph74%29.95 "HgN/A
4:00 PM81 °FScattered clouds.12 mph70%29.95 "HgN/A
3:00 PM81 °FScattered clouds.10 mph70%29.95 "HgN/A
2:00 PM82 °FScattered clouds.10 mph66%29.98 "HgN/A
1:00 PM81 °FScattered clouds.12 mph70%30.01 "HgN/A
12:00 PM82 °FPassing clouds.12 mph66%30.04 "HgN/A
11:00 AM81 °FScattered clouds.13 mph70%30.04 "HgN/A
10:00 AM81 °FScattered clouds.12 mph70%30.04 "HgN/A
9:00 AM81 °FPassing clouds.10 mph70%30.04 "HgN/A
8:00 AM77 °FPartly sunny.9 mph79%30.01 "HgN/A
7:00 AM77 °FPartly sunny.9 mph79%30.01 "HgN/A
6:00 AM77 °FPassing clouds.7 mph79%29.98 "HgN/A
5:00 AM77 °FPassing clouds.9 mph79%29.98 "HgN/A
4:00 AM77 °FPassing clouds.8 mph79%29.98 "HgN/A
3:00 AM77 °FPassing clouds.9 mph79%29.98 "HgN/A
2:00 AM77 °FPassing clouds.8 mph79%29.98 "HgN/A
1:00 AM77 °FPassing clouds.8 mph79%30.01 "HgN/A
12:00 AM77 °FPassing clouds.7 mph79%30.01 "HgN/A
11:00 PM
Jan 27
77 °FPassing clouds.12 mph79%30.04 "HgN/A
10:00 PM77 °FPassing clouds.10 mph79%30.04 "HgN/A
9:00 PM79 °FPassing clouds.10 mph74%30.04 "HgN/A
8:00 PM77 °FPassing clouds.9 mph79%30.04 "HgN/A
Weather by CustomWeather, © 2014

See weather overviewHow to use our weather pages